Terug naar catalogus

SL-12 R/B

AUX MOTOR

ActiefLEO
NORAD 15774·ROCKET BODY·🇷🇺 Russia

Gelanceerd May 30, 1985 vanaf Baikonur Cosmodrome

Loading…

Volgende Passages (komende 24 uur)

TLE

VersSource: Space-Track

Epoch: Sep 14, 2026, 11:18 UTC

1 15774U 85042F   26257.47106304  .00000066  00000-0  63773-4 0  9992
2 15774  66.5869 169.8888 0032310 253.8674 158.6276 14.25410257145813

Volg SL-12 R/B in realtime met AllMySat

Download on the App Store